Regional Weather Roundup
Issued by NWS Green Bay, WI

Home | Current Version | Previous Version | Text Only | Print | Product List | Glossary On
Versions: 1 2 3 4 5 6 7 8 9 10 11 12 13 14 15 16 17 18 19 20 21 22 23 24 25 26 27 28 29 30 31 32 33 34 35 36 37 38 39 40 41 42 43 44 45 46 47 48 49 50
000
ASUS43 KGRB 161520
RWRGRB

NORTH-CENTRAL AND NORTHEAST WISCONSIN REGIONAL WEATHER ROUNDUP
NATIONAL WEATHER SERVICE GREEN BAY WI
1000 AM CDT TUE SEP 16 2014

WIZ005-009-010>012-018-019-161600-
NORTH CENTRAL WISCONSIN

CITY           SKY/WX    TMP DP  RH WIND       PRES   REMARKS
IRONWOOD       SUNNY     57  39  51 W20G28    30.04F
MANITOWISH WTR SUNNY     54  39  57 W12       30.10F
ARBOR VITAE    SUNNY     57  41  55 W13G18    30.11S
EAGLE RIVER    MOSUNNY   53  37  54 W12       30.11S
LAND O LAKES   MOSUNNY   55  37  52 W10       30.10F
RHINELANDER    SUNNY     53  39  59 W12       30.14F
PHILLIPS       SUNNY     54  41  61 W7        30.13F
ANTIGO         SUNNY     52  40  64 W10       30.16F
TOMAHAWK       SUNNY     55  38  52 W12       30.14F
MERRILL        PTSUNNY   53  42  67 W7        30.15F
$$

WIZ013-073-161600-
NORTHEAST WISCONSIN

CITY           SKY/WX    TMP DP  RH WIND       PRES   REMARKS
IRON MOUNTAIN  SUNNY     55  38  52 W9        30.09F
MARINETTE      SUNNY     55  41  58 NW8       30.12F
OCONTO         SUNNY     56  42  58 W8        30.15F
$$

WIZ017-030-035>037-045-161600-
CENTRAL WISCONSIN

CITY           SKY/WX    TMP DP  RH WIND       PRES   REMARKS
MEDFORD        SUNNY     52  41  66 W12       30.16F
WAUSAU         SUNNY     54  40  59 W8        30.16S
MOSINEE        SUNNY     54  43  66 W9        30.17F
MARSHFIELD     SUNNY     55  43  63 W8        30.17F
WISC RAPIDS    SUNNY     55  43  63 NW6       30.20F
STEVENS POINT  SUNNY     53  39  59 W6        30.18F
WAUPACA        SUNNY     58  42  55 W7        30.18F
SHAWANO        SUNNY     57  43  58 SW6       30.16F
CLINTONVILLE   SUNNY     55  39  54 W9        30.16F
$$

WIZ038-039-048-051-161600-
FOX VALLEY

CITY           SKY/WX    TMP DP  RH WIND       PRES   REMARKS
NWS GREEN BAY  SUNNY     54  43  66 W8        30.17F
APPLETON       SUNNY     52  43  71 W8        30.19S
OSHKOSH        SUNNY     54  44  69 W7        30.19S
FOND DU LAC    SUNNY     55  44  66 VRB6      30.20S
$$

WIZ022-050-052-161600-
EAST CENTRAL WISCONSIN

CITY           SKY/WX    TMP DP  RH WIND       PRES   REMARKS
STURGEON BAY   SUNNY     55  39  54 W9        30.15F
MANITOWOC      SUNNY     55  44  66 W9        30.19S
SHEBOYGAN      SUNNY     56  42  59 W8        30.19S
$$

LMZ563-521-522-541>543-161600-
LAKESHORE

STATION/POSITION TIME  TEMP    WIND        PRES    VSBY  WAVE
                       AIR SEA DIR/SP/G                  HT/PER
                 (UTC) (F)     (DEG/KT/KT) (MB)    (MI)  (FT/S)
SHEBOYGAN LKSHOR 1500   55 48  290/  9/ 12 1022.8R
KEWAUNEE LKSHORE 1500   54     290/  4/  9 1020.5F
NORTHPORT PIER   1500   56     290/  6/ 10 1020.0F
N MID LAKE BUOY  1500   53 59  250/ 10/ 12 1020.3F         1/ 3
S GREEN BAY BUOY 1500   54     VRB 12/ 14  1021.9F
CHAMBERS ISLAND  1500   54     230/  6/ 10 1020.7F
MENOMINEE LKSHOR 1500   55     270/  7/ 11 1020.9F
$$



USA.gov is the U.S. government's official web portal to all federal, state and local government web resources and services.